(153602) = 2001 SS283

Discovered at Kitt Peak on 2001-09-21 by Spacewatch.

Orbit

Orbit type: Main Belt

Note: WebGL enabled browser required.

epoch2023-09-13.0
epoch JD2460200.5
perihelion date2023-01-07.84979
perihelion JD2459952.34979
argument of perihelion (°)53.06882
ascending node (°)256.34006
inclination (°)0.82370
eccentricity0.1882833
perihelion distance (AU)1.9135536
Tisserand w.r.t. Jupiter3.5
ΔV w.r.t. Earth (km/sec)8.6
semimajor axis (AU)2.3574155
mean anomaly (°)67.57161
mean daily motion (°/day)0.27230130
aphelion distance (AU)2.801
period (years)3.62
P-vector [x]0.63476995
P-vector [y]-0.71343207
P-vector [z]-0.29678578
Q-vector [x]0.77257490
Q-vector [y]0.57904124
Q-vector [z]0.26045971
absolute magnitude17.71
phase slope0.15
uncertainty0
referenceMPEC 2023-Y46
observations used291
oppositions15
arc length (days)8122
first opposition used2001
last opposition used2023
residual rms (arc-secs)0.86
perturbers coarse indicatorM-v
perturbers precise indicator003Ek
first observation date used2001-09-20.0
last observation date used2023-12-16.0
computer nameMPCLINUX
JD of orbit computation2456731.556683
perihelion JD uncertainty (days)6.1852E-05
argument of perihelion uncertainty (°)3.4885E-04
ascending node uncertainty (°)3.4853E-04
inclination uncertainty (°)4.1481E-06
eccentricity uncertainty 3.0660E-08
perihelion distance uncertainty (AU)7.3778E-08
Minimum Orbit Intersection Distances (in AU)
for orbit epoch: 2460200.5, reference: E2023-Y46
Mercury1.4806
Venus1.18734
Earth0.89852
Mars0.51485
Jupiter2.4451
Saturn6.31361
Uranus15.7082
Neptune27.3765

Observations

298 total observations over interval: 2001 09 20.32371 – 2023 12 16.265922
These data are available for download (format description).

Date (UT) J2000 RA J2000 Dec Magn Location Ref
2001 09 20.32371 00 59 06.67 +07 53 12.8 19.5   704 – Lincoln Laboratory ETS, New Mexico MPS 44055
2001 09 20.35600 00 59 04.99 +07 53 03.3 20.2   704 – Lincoln Laboratory ETS, New Mexico MPS 44055
2001 09 20.37019 00 59 04.27 +07 52 59.5 20.0   704 – Lincoln Laboratory ETS, New Mexico MPS 44055
2001 09 20.38439 00 59 03.59 +07 52 54.5 20.0   704 – Lincoln Laboratory ETS, New Mexico MPS 44055
2001 09 21.43641 00 58 11.02 +07 47 29.7 20.7 V 691 – Steward Observatory, Kitt Peak-Spacewatch MPS 36839
2001 09 21.44052 00 58 10.79 +07 47 28.2 20.6 V 691 – Steward Observatory, Kitt Peak-Spacewatch MPS 36839
2001 09 21.44440 00 58 10.61 +07 47 27.1 21.0 V 691 – Steward Observatory, Kitt Peak-Spacewatch MPS 36839
2001 09 23.43099 00 56 28.90 +07 36 49.5 20.0 V 291 – LPL/Spacewatch II MPS 36839
2001 09 23.43856 00 56 28.48 +07 36 47.0 20.3 V 291 – LPL/Spacewatch II MPS 36839
2001 09 23.44079 00 56 28.36 +07 36 46.2 20.5 V 691 – Steward Observatory, Kitt Peak-Spacewatch MPS 36839
2001 09 23.44543 00 56 28.08 +07 36 44.8 20.4 V 691 – Steward Observatory, Kitt Peak-Spacewatch MPS 36839
2001 09 23.44644 00 56 28.05 +07 36 44.5 20.2 V 291 – LPL/Spacewatch II MPS 36839
2001 09 23.45024 00 56 27.84 +07 36 43.0 20.6 V 691 – Steward Observatory, Kitt Peak-Spacewatch MPS 36839
2001 09 24.28181 00 55 44.69 +07 32 08.2 20.6 V 691 – Steward Observatory, Kitt Peak-Spacewatch MPS 40697
2001 09 24.29146 00 55 44.15 +07 32 04.9 20.8 V 691 – Steward Observatory, Kitt Peak-Spacewatch MPS 40697
2001 09 24.29753 00 55 43.82 +07 32 03.0 20.7 V 691 – Steward Observatory, Kitt Peak-Spacewatch MPS 40697
2001 10 08.37531 00 42 46.04 +06 07 05.3 20.4   644 – Palomar Mountain/NEAT MPS 38304
2001 10 08.38627 00 42 45.41 +06 07 00.7 20.3   644 – Palomar Mountain/NEAT MPS 38304
2001 10 08.39689 00 42 44.81 +06 06 57.2 20.0   644 – Palomar Mountain/NEAT MPS 38304
2001 10 11.36260 00 40 04.78 +05 48 42.5 19.9   644 – Palomar Mountain/NEAT MPS 38304
2001 10 11.38390 00 40 03.61 +05 48 35.1 20.2   644 – Palomar Mountain/NEAT MPS 38304
2001 10 11.40510 00 40 02.42 +05 48 26.4 20.1   644 – Palomar Mountain/NEAT MPS 38304
2004 04 21.36802 15 44 29.83 -20 31 53.6 20.7 V 691 – Steward Observatory, Kitt Peak-Spacewatch MPS 139254
2004 04 21.39510 15 44 28.77 -20 31 50.2 21.0 V 691 – Steward Observatory, Kitt Peak-Spacewatch MPS 139254
2004 04 21.42250 15 44 27.70 -20 31 46.5 21.6 V 691 – Steward Observatory, Kitt Peak-Spacewatch MPS 139254
2004 06 13.17106 14 59 20.23 -17 20 43.7 20.6 V 691 – Steward Observatory, Kitt Peak-Spacewatch MPS 139254
2004 06 13.19828 14 59 19.33 -17 20 39.5 20.8 V 691 – Steward Observatory, Kitt Peak-Spacewatch MPS 139254
2004 06 13.22580 14 59 18.43 -17 20 34.9 20.4 V 691 – Steward Observatory, Kitt Peak-Spacewatch MPS 139254
2005 10 27.43044 04 53 53.95 +22 56 47.8 20.7 V G96 – Mt. Lemmon Survey MPS 145900
2005 10 27.43716 04 53 53.70 +22 56 47.6 21.2 V G96 – Mt. Lemmon Survey MPS 145900
2005 10 27.44402 04 53 53.44 +22 56 46.7 20.9 V G96 – Mt. Lemmon Survey MPS 145900
2005 10 27.45112 04 53 53.23 +22 56 46.5 21.3 V G96 – Mt. Lemmon Survey MPS 145900
2005 11 12.42738 04 41 21.85 +22 31 14.3 21.2 V 691 – Steward Observatory, Kitt Peak-Spacewatch MPS 149289
2005 11 12.44483 04 41 20.77 +22 31 12.2 21.2 V 691 – Steward Observatory, Kitt Peak-Spacewatch MPS 149289
2005 11 12.46242 04 41 19.69 +22 31 09.7 21.1 V 691 – Steward Observatory, Kitt Peak-Spacewatch MPS 149289
2005 11 22.20616 04 30 58.98 +22 07 30.3 20.8 V 691 – Steward Observatory, Kitt Peak-Spacewatch MPS 151889
2005 11 22.22350 04 30 57.77 +22 07 27.6 21.4 V 691 – Steward Observatory, Kitt Peak-Spacewatch MPS 151889
2005 11 22.24082 04 30 56.56 +22 07 24.7 21.4 V 691 – Steward Observatory, Kitt Peak-Spacewatch MPS 151889
2005 11 26.35213 04 26 17.34 +21 55 56.4 20.1 V G96 – Mt. Lemmon Survey MPS 151889
2005 11 26.35844 04 26 16.90 +21 55 55.3 20.3 V G96 – Mt. Lemmon Survey MPS 151889
2005 11 26.36463 04 26 16.51 +21 55 54.2 20.0 V G96 – Mt. Lemmon Survey MPS 151889
2005 11 26.37079 04 26 16.04 +21 55 53.3 20.3 V G96 – Mt. Lemmon Survey MPS 151889
2005 11 28.32785 04 24 02.55 +21 50 10.7 20.1 V G96 – Mt. Lemmon Survey MPS 151889
2005 11 28.33432 04 24 02.08 +21 50 10.8 20.0 V G96 – Mt. Lemmon Survey MPS 151889
2005 11 28.34095 04 24 01.58 +21 50 09.2 19.8 V G96 – Mt. Lemmon Survey MPS 151889
2005 11 28.34728 04 24 01.18 +21 50 08.1 19.7 V G96 – Mt. Lemmon Survey MPS 151889
2005 12 23.07623 03 59 49.87 +20 39 19.9 21.5 V 691 – Steward Observatory, Kitt Peak-Spacewatch MPS 155775
2005 12 23.09935 03 59 48.84 +20 39 17.1 21.2 V 691 – Steward Observatory, Kitt Peak-Spacewatch MPS 155775
2005 12 23.12247 03 59 47.85 +20 39 13.8 21.8 V 691 – Steward Observatory, Kitt Peak-Spacewatch MPS 155775
2007 02 17.24447 10 51 49.07 +05 52 54.8   691 – Steward Observatory, Kitt Peak-Spacewatch MPS 200279
2007 02 17.26255 10 51 48.07 +05 53 00.8   691 – Steward Observatory, Kitt Peak-Spacewatch MPS 200279
2007 02 17.28063 10 51 47.09 +05 53 06.4   691 – Steward Observatory, Kitt Peak-Spacewatch MPS 200279
2007 02 21.25362 10 48 09.49 +06 14 29.6 21.5 V 691 – Steward Observatory, Kitt Peak-Spacewatch MPS 200279
2007 02 21.27171 10 48 08.42 +06 14 35.5 21.2 V 691 – Steward Observatory, Kitt Peak-Spacewatch MPS 200279
2007 02 21.29670 10 48 06.97 +06 14 43.6 21.3 V 691 – Steward Observatory, Kitt Peak-Spacewatch MPS 200279
2007 02 25.26734 10 44 20.89 +06 37 02.8 21.4 V 691 – Steward Observatory, Kitt Peak-Spacewatch MPS 201436
2007 02 25.29187 10 44 19.45 +06 37 11.4 21.4 V 691 – Steward Observatory, Kitt Peak-Spacewatch MPS 201436
2007 02 25.31295 10 44 18.18 +06 37 18.5 21.0 V 691 – Steward Observatory, Kitt Peak-Spacewatch MPS 201436
2007 03 09.35133 10 32 42.00 +07 46 24.0 21.9 V G96 – Mt. Lemmon Survey MPS 202293
2007 03 09.35691 10 32 41.74 +07 46 26.2 21.3 V G96 – Mt. Lemmon Survey MPS 202293
2007 03 09.36249 10 32 41.42 +07 46 28.4 21.6 V G96 – Mt. Lemmon Survey MPS 202293
2007 03 09.36803 10 32 41.06 +07 46 29.8 22.0 V G96 – Mt. Lemmon Survey MPS 202293
2007 03 11.22272 10 30 57.63 +07 56 51.5 21.5 V G96 – Mt. Lemmon Survey MPS 202908
2007 03 11.23108 10 30 57.16 +07 56 54.1 20.7 V G96 – Mt. Lemmon Survey MPS 202908
2007 03 11.24101 10 30 56.55 +07 56 57.2 21.6 V G96 – Mt. Lemmon Survey MPS 202908
2007 03 11.24933 10 30 56.12 +07 56 59.8 21.3 V G96 – Mt. Lemmon Survey MPS 202908
2007 03 20.21931 10 23 11.04 +08 43 37.4 21.6 V G96 – Mt. Lemmon Survey MPS 204496
2007 03 20.22604 10 23 10.78 +08 43 38.3 21.8 V G96 – Mt. Lemmon Survey MPS 204496
2007 03 20.23289 10 23 10.39 +08 43 40.5 21.3 V G96 – Mt. Lemmon Survey MPS 204496
2007 03 20.23976 10 23 10.14 +08 43 42.4 21.1 V G96 – Mt. Lemmon Survey MPS 204496
2008 05 30.43664 21 26 53.16 -14 21 00.6 20.7 V G96 – Mt. Lemmon Survey MPS 250878
2008 05 30.44227 21 26 53.44 -14 20 58.4 21.3 V G96 – Mt. Lemmon Survey MPS 250878
2008 05 30.44792 21 26 53.84 -14 20 56.8 20.9 V G96 – Mt. Lemmon Survey MPS 250878
2008 05 30.45354 21 26 54.16 -14 20 54.9 21.0 V G96 – Mt. Lemmon Survey MPS 250878
2008 07 30.13927 21 36 50.75 -12 41 44.7 18.9 V J75 – OAM Observatory, La Sagra MPS 254307
2008 07 30.15303 21 36 50.14 -12 41 47.8 18.7 V J75 – OAM Observatory, La Sagra MPS 254307
2008 07 30.16682 21 36 49.43 -12 41 49.0 19.4 V J75 – OAM Observatory, La Sagra MPS 254307
2008 08 07.87523 21 29 47.75 -13 11 48.2 19.4 V 104 – San Marcello Pistoiese MPS 253945
2008 08 07.88566 21 29 47.20 -13 11 50.8 19.7 V 104 – San Marcello Pistoiese MPS 253945
2008 08 07.89642 21 29 46.36 -13 11 52.2 19.8 V 104 – San Marcello Pistoiese MPS 253945
2008 08 19.58803 21 19 51.92 -13 55 45.0 19.1 V E12 – Siding Spring Survey MPS 255105
2008 08 19.59920 21 19 51.38 -13 55 46.8 19.8 V E12 – Siding Spring Survey MPS 255105
2008 08 19.61038 21 19 50.77 -13 55 49.0 19.8 V E12 – Siding Spring Survey MPS 255105
2008 08 19.62165 21 19 50.16 -13 55 52.3 19.6 V E12 – Siding Spring Survey MPS 255105
2008 08 24.20471 21 16 18.77 -14 12 11.5 19.5   704 – Lincoln Laboratory ETS, New Mexico MPS 255105
2008 08 24.21775 21 16 18.14 -14 12 13.0 20.1   704 – Lincoln Laboratory ETS, New Mexico MPS 255105
2008 08 24.23078 21 16 17.45 -14 12 16.9 20.1   704 – Lincoln Laboratory ETS, New Mexico MPS 255105
